Regional Weather Roundup
Issued by NWS Cleveland, OH

Home | Current Version | Previous Version | Text Only | Print | Product List | Glossary Off
Versions: 1 2 3 4 5 6 7 8 9 10 11 12 13 14 15 16 17 18 19 20 21 22 23 24 25 26 27 28 29 30 31 32 33 34 35 36 37 38 39 40 41 42 43 44 45 46 47 48 49 50

000
ASUS41 KCLE 110410
RWRCLE
OHIO REGIONAL WEATHER ROUNDUP
NATIONAL WEATHER SERVICE CLEVELAND, OH
1200 AM EDT FRI JUL 11 2014

NOTE: "FAIR" INDICATES FEW OR NO CLOUDS BELOW 12,000 FEET WITH NO
SIGNIFICANT WEATHER AND/OR OBSTRUCTIONS TO VISIBILITY.

OHZ001>008-015>018-024>027-034-035-043-044-110500-
   NORTHWEST OHIO

CITY           SKY/WX    TMP DP  RH WIND       PRES   REMARKS
DEFIANCE       CLEAR     63  55  75 CALM      30.18R
FINDLAY        CLEAR     66  58  75 E5        30.17R
TOLEDO EXPRESS CLEAR     61  57  87 CALM      30.17R
TOLEDO EXEC    CLEAR     65  57  75 E3        30.19R
LIMA           CLEAR     64  56  75 CALM      30.18R
$$

OHZ009>014-019>023-028>033-038-089-110500-
   NORTHEAST OHIO

CITY           SKY/WX    TMP DP  RH WIND       PRES   REMARKS
CLE-HOPKINS    CLEAR     68  55  63 NE8       30.19S
CLE-LAKEFRONT  CLEAR     67  55  65 E3        30.16R
CUY CO. ARPT   NOT AVBL
LORAIN-ELYRIA  CLEAR     65  59  81 CALM      30.19R
ASHTABULA      PTCLDY    57  54  89 CALM      30.19S
AKRON-CANTON   MOCLDY    65  56  72 N8        30.18R
WOOSTER        CLEAR     63  57  81 CALM      30.19R
MANSFIELD      CLEAR     63  56  78 CALM      30.19S
YOUNGSTOWN     MOCLDY    66  56  70 NE7       30.18R
$$

OHZ042-051>053-060>062-070>072-077>081-110500-
  SOUTHWEST OHIO

CITY           SKY/WX    TMP DP  RH WIND       PRES   REMARKS
CINC-COVINGTON PTCLDY    72  54  53 NE7       30.16S
CINC-LUNKEN    CLEAR     63  60  90 CALM      30.16R
HAMILTON       CLEAR     63  58  83 CALM      30.17R
DAYTON         CLEAR     67  54  63 NE3       30.19R
WRIGHT-PAT AFB CLEAR     65  57  74 N2        30.18R
DAYTON GENERAL CLEAR     66  56  70 NE5       30.17R
WILMINGTON     CLEAR     64  57  78 N3        30.17R
$$

OHZ036-037-039>041-045>050-054>059-063>069-073>076-082>088-110500-
  CENTRAL AND SOUTHEAST OHIO

CITY           SKY/WX    TMP DP  RH WIND       PRES   REMARKS
COLUMBUS       PTCLDY    70  56  61 N3        30.16R
OSU AIRPORT    CLEAR     66  56  70 N5        30.17R
BOLTON FIELD   CLEAR     64  58  81 CALM      30.17S
RICKENBACK AFB PTCLDY    70  53  56 CALM      30.16R
NEWARK         CLEAR     65  59  81 N3        30.16S
MARION         CLEAR     64  59  83 N5        30.18R
LANCASTER      PTCLDY    64  60  87 CALM      30.16S
ZANESVILLE     PTCLDY    67  59  75 CALM      30.16R
NEW PHILLY     CLOUDY    68  61  78 CALM      30.17R
$$


USA.gov is the U.S. government's official web portal to all federal, state and local government web resources and services.